"read_dt","SO2 (ppb)","flags","PMT voltage (V)","lamp voltage (V)","lamp intensity (Hz)","internal temp (C)","react chamber temp (C)","sample flow (l/min)","pres (mmHg)","SO2 bkg (ppb)","SO2 coefficient"
2018-07-01 00:00:00,-2.548E-01,4C000000*,-702.6,974.299,90,28.4,44.8,0.406,733.6,2.1,1.050*
2018-07-01 00:01:00,-1.932E-01,4C000000*,-702.6,974.703,90,28.5,45.0,0.406,733.6,2.1,1.050*
2018-07-01 00:02:00,-1.379E-01,4C000000*,-702.6,976.320,90,28.5,44.9,0.406,733.6,2.1,1.050*
2018-07-01 00:03:00,-1.181E-01,4C000000*,-702.6,975.916,89,28.5,45.0,0.406,733.6,2.1,1.050*
2018-07-01 00:04:00,-1.405E-01,4C000000*,-703.0,975.108,90,28.5,45.1,0.406,733.6,2.1,1.050*
2018-07-01 00:05:00,-1.625E-01,4C000000*,-702.6,974.703,90,28.5,44.8,0.406,733.6,2.1,1.050*
2018-07-01 00:06:00,-1.049E-01,4C000000*,-702.6,975.108,90,28.5,45.1,0.406,733.6,2.1,1.050*
2018-07-01 00:07:00,-1.612E-01,4C000000*,-703.0,974.299,89,28.6,44.8,0.406,733.9,2.1,1.050*
2018-07-01 00:08:00,-4.248E-02,4C000000*,-702.6,974.703,91,28.6,45.1,0.406,733.6,2.1,1.050*
2018-07-01 00:09:00,-1.334E-01,4C000000*,-702.6,974.299,90,28.5,44.9,0.406,733.6,2.1,1.050*
2018-07-01 00:10:00,-7.034E-02,4C000000*,-702.6,975.108,90,28.6,45.0,0.406,733.9,2.1,1.050*
2018-07-01 00:11:00,-9.077E-02,4C000000*,-702.6,975.108,90,28.6,45.0,0.406,733.9,2.1,1.050*
2018-07-01 00:12:00,-2.120E-03,4C000000*,-702.6,975.108,92,28.6,44.9,0.406,733.9,2.1,1.050*
2018-07-01 00:13:00,-7.081E-02,4C000000*,-703.0,974.703,91,28.7,45.1,0.406,733.9,2.1,1.050*
2018-07-01 00:14:00,-9.770E-02,4C000000*,-702.6,974.703,90,28.7,44.8,0.406,733.9,2.1,1.050*
2018-07-01 00:15:00,-1.977E-01,4C000000*,-702.6,975.512,90,28.6,45.2,0.406,733.9,2.1,1.050*
2018-07-01 00:16:00,-1.301E-01,4C000000*,-702.6,976.320,87,28.6,44.9,0.406,733.9,2.1,1.050*
2018-07-01 00:17:00,-1.792E-01,4C000000*,-702.6,975.916,90,28.6,45.1,0.406,733.9,2.1,1.050*
2018-07-01 00:18:00,-1.844E-01,4C000000*,-703.0,975.108,89,28.7,45.0,0.406,733.9,2.1,1.050*
2018-07-01 00:19:00,-1.790E-01,4C000000*,-702.6,975.512,90,28.6,45.0,0.406,733.9,2.1,1.050*
2018-07-01 00:20:00,-2.143E-01,4C000000*,-702.3,976.320,90,28.7,45.1,0.406,733.6,2.1,1.050*
2018-07-01 00:21:00,-1.074E-01,4C000000*,-702.6,973.895,91,28.7,44.8,0.406,733.9,2.1,1.050*
2018-07-01 00:22:00,-1.860E-01,4C000000*,-702.6,975.512,89,28.7,45.2,0.406,733.9,2.1,1.050*
2018-07-01 00:23:00,-1.746E-01,4C000000*,-703.0,973.895,89,28.7,44.8,0.406,733.9,2.1,1.050*
2018-07-01 00:24:00,-1.504E-01,4C000000*,-702.6,974.299,89,28.7,45.1,0.406,733.9,2.1,1.050*
2018-07-01 00:25:00,-1.482E-01,4C000000*,-702.6,975.512,90,28.7,44.9,0.406,733.9,2.1,1.050*
2018-07-01 00:26:00,-2.136E-01,4C000000*,-702.3,975.108,91,28.7,45.0,0.406,734.2,2.1,1.050*
2018-07-01 00:27:00,-2.468E-01,4C000000*,-702.6,974.299,90,28.7,45.1,0.406,733.6,2.1,1.050*
2018-07-01 00:28:00,-1.666E-01,4C000000*,-702.6,975.916,90,28.7,44.9,0.406,733.9,2.1,1.050*
2018-07-01 00:29:00,-7.416E-02,4C000000*,-702.6,973.491,89,28.7,45.2,0.406,733.9,2.1,1.050*
2018-07-01 00:30:00,-1.070E-01,4C000000*,-702.6,975.108,89,28.7,44.8,0.406,733.9,2.1,1.050*
2018-07-01 00:31:00,-8.137E-02,4C000000*,-702.6,974.703,90,28.8,45.1,0.406,733.9,2.1,1.050*
2018-07-01 00:32:00,-1.844E-01,4C000000*,-702.6,975.108,89,28.7,44.9,0.405,733.9,2.1,1.050*
2018-07-01 00:33:00,-1.863E-01,4C000000*,-703.0,974.703,90,28.8,45.0,0.406,734.2,2.1,1.050*
2018-07-01 00:34:00,-9.925E-02,4C000000*,-702.6,973.491,89,28.8,45.0,0.406,733.9,2.1,1.050*
2018-07-01 00:35:00,-1.906E-01,4C000000*,-702.6,975.108,90,28.7,44.9,0.406,734.2,2.1,1.050*
2018-07-01 00:36:00,-1.937E-01,4C000000*,-702.6,974.299,88,28.8,45.1,0.406,733.9,2.1,1.050*
2018-07-01 00:37:00,-2.458E-01,4C000000*,-702.6,973.895,89,28.8,44.8,0.406,733.9,2.1,1.050*
2018-07-01 00:38:00,-1.630E-01,4C000000*,-703.4,975.108,90,28.8,45.1,0.406,733.9,2.1,1.050*
2018-07-01 00:39:00,-1.750E-01,4C000000*,-702.6,973.491,88,28.8,44.8,0.406,733.9,2.1,1.050*
2018-07-01 00:40:00,-2.826E-01,4C000000*,-702.6,972.682,90,28.9,45.0,0.406,734.2,2.1,1.050*
2018-07-01 00:41:00,-2.162E-01,4C000000*,-702.6,973.895,89,28.8,45.0,0.406,733.9,2.1,1.050*
2018-07-01 00:42:00,-2.239E-01,4C000000*,-703.0,973.086,89,28.8,44.9,0.406,734.2,2.1,1.050*
2018-07-01 00:43:00,-1.807E-01,4C000000*,-703.0,974.703,89,28.8,45.0,0.406,733.9,2.1,1.050*
2018-07-01 00:44:00,-1.821E-01,4C000000*,-703.4,973.895,89,28.8,44.8,0.406,733.9,2.1,1.050*
2018-07-01 00:45:00,-1.539E-01,4C000000*,-703.0,973.086,90,28.9,45.2,0.406,733.9,2.1,1.050*
2018-07-01 00:46:00,-1.674E-01,4C000000*,-702.6,973.895,90,28.8,44.9,0.406,733.9,2.1,1.050*
2018-07-01 00:47:00,-2.066E-02,4C000000*,-702.6,975.512,87,28.9,45.1,0.406,734.2,2.1,1.050*
2018-07-01 00:48:00,2.385E-01,4C000000*,-703.0,975.512,90,28.8,45.0,0.406,734.2,2.1,1.050*
2018-07-01 00:49:00,3.147E-01,4C000000*,-703.4,976.320,90,28.9,45.0,0.406,734.2,2.1,1.050*
2018-07-01 00:50:00,1.879E-01,4C000000*,-703.0,973.895,90,29.0,45.1,0.406,734.2,2.1,1.050*
2018-07-01 00:51:00,-6.548E-02,4C000000*,-702.6,974.299,91,28.9,44.9,0.406,734.2,2.1,1.050*
2018-07-01 00:52:00,-1.290E-01,4C000000*,-703.0,974.299,89,28.9,45.2,0.406,734.2,2.1,1.050*
2018-07-01 00:53:00,-1.208E-01,4C000000*,-702.6,974.703,89,28.9,44.8,0.406,734.2,2.1,1.050*
2018-07-01 00:54:00,-2.094E-01,4C000000*,-702.6,975.512,90,28.9,45.1,0.406,734.5,2.1,1.050*
2018-07-01 00:55:00,-2.355E-01,4C000000*,-703.0,975.512,90,28.9,44.9,0.406,734.2,2.1,1.050*
2018-07-01 00:56:00,-1.738E-01,4C000000*,-702.6,975.108,90,28.9,45.0,0.406,734.2,2.1,1.050*
2018-07-01 00:57:00,-1.799E-01,4C000000*,-702.6,974.703,89,28.9,45.1,0.406,734.2,2.1,1.050*
2018-07-01 00:58:00,-2.642E-01,4C000000*,-702.3,973.895,90,29.0,44.9,0.406,734.2,2.1,1.050*
2018-07-01 00:59:00,-2.624E-01,4C000000*,-703.0,974.703,89,29.0,45.1,0.406,733.9,2.1,1.050*
2018-07-01 01:00:00,-2.815E-01,4C000000*,-702.6,973.491,91,28.9,44.8,0.406,734.2,2.1,1.050*
2018-07-01 01:01:00,-2.251E-01,4C000000*,-702.6,974.299,90,29.0,45.1,0.406,734.2,2.1,1.050*
2018-07-01 01:02:00,-2.634E-01,4C000000*,-702.6,974.299,90,29.0,44.9,0.406,734.5,2.1,1.050*
2018-07-01 01:03:00,-2.635E-01,4C000000*,-703.0,974.299,90,28.9,45.0,0.406,734.2,2.1,1.050*
2018-07-01 01:04:00,-2.764E-01,4C000000*,-702.6,974.703,90,29.0,45.1,0.406,734.2,2.1,1.050*
2018-07-01 01:05:00,-2.792E-01,4C000000*,-702.6,974.703,88,29.0,45.0,0.407,734.2,2.1,1.050*
2018-07-01 01:06:00,-2.381E-01,4C000000*,-703.0,973.895,90,28.9,45.1,0.407,734.5,2.1,1.050*
2018-07-01 01:07:00,-2.661E-01,4C000000*,-703.0,974.299,90,29.0,44.8,0.406,734.5,2.1,1.050*
2018-07-01 01:08:00,-1.373E-01,4C000000*,-702.6,974.703,91,29.0,45.2,0.406,734.5,2.1,1.050*
2018-07-01 01:09:00,-2.370E-01,4C000000*,-702.6,973.895,90,29.1,44.9,0.407,734.5,2.1,1.050*
2018-07-01 01:10:00,-2.342E-01,4C000000*,-702.6,973.086,89,29.0,45.0,0.406,734.5,2.1,1.050*
2018-07-01 01:11:00,-2.310E-01,4C000000*,-703.0,974.299,90,28.9,45.0,0.406,734.8,2.1,1.050*
2018-07-01 01:12:00,-1.972E-01,4C000000*,-702.6,973.895,89,28.9,44.9,0.406,734.5,2.1,1.050*
2018-07-01 01:13:00,-2.505E-01,4C000000*,-703.0,973.086,89,29.0,45.1,0.406,734.5,2.1,1.050*
2018-07-01 01:14:00,-1.777E-01,4C000000*,-702.6,972.682,89,29.0,44.8,0.406,734.8,2.1,1.050*
2018-07-01 01:15:00,-2.709E-01,4C000000*,-702.6,972.682,88,29.1,45.2,0.407,734.5,2.1,1.050*
2018-07-01 01:16:00,-8.822E-02,4C000000*,-703.0,973.491,90,29.0,44.9,0.407,734.8,2.1,1.050*
2018-07-01 01:17:00,-2.171E-01,4C000000*,-702.6,973.895,90,29.0,45.1,0.407,734.8,2.1,1.050*
2018-07-01 01:18:00,-1.481E-01,4C000000*,-703.0,974.703,89,29.1,44.9,0.406,734.5,2.1,1.050*
2018-07-01 01:19:00,-2.074E-01,4C000000*,-702.6,973.086,90,29.1,45.0,0.407,734.8,2.1,1.050*
2018-07-01 01:20:00,-2.155E-01,4C000000*,-703.0,974.299,90,29.1,45.1,0.407,734.8,2.1,1.050*
2018-07-01 01:21:00,-1.430E-01,4C000000*,-703.0,974.703,89,29.1,44.9,0.407,734.8,2.1,1.050*
2018-07-01 01:22:00,-1.996E-01,4C000000*,-702.6,973.491,91,29.1,45.2,0.407,734.8,2.1,1.050*
2018-07-01 01:23:00,-2.361E-01,4C000000*,-702.6,972.278,90,29.1,44.9,0.407,734.8,2.1,1.050*
2018-07-01 01:24:00,-2.367E-01,4C000000*,-702.6,973.491,90,29.1,45.1,0.406,734.5,2.1,1.050*
2018-07-01 01:25:00,-2.561E-01,4C000000*,-703.0,973.086,89,29.1,44.8,0.407,734.5,2.1,1.050*
2018-07-01 01:26:00,-2.014E-01,4C000000*,-702.6,972.682,89,29.1,45.0,0.407,734.5,2.1,1.050*
2018-07-01 01:27:00,-2.710E-01,4C000000*,-702.6,972.278,90,29.0,45.1,0.406,734.5,2.1,1.050*
2018-07-01 01:28:00,-2.553E-01,4C000000*,-702.6,972.682,90,29.1,44.9,0.407,734.5,2.1,1.050*
2018-07-01 01:29:00,-2.301E-01,4C000000*,-702.6,972.682,90,29.1,45.1,0.406,734.5,2.1,1.050*
2018-07-01 01:30:00,-2.129E-01,4C000000*,-702.6,973.086,90,29.1,44.9,0.406,734.5,2.1,1.050*
2018-07-01 01:31:00,-2.741E-01,4C000000*,-702.6,974.299,90,29.1,45.1,0.406,734.5,2.1,1.050*
2018-07-01 01:32:00,-2.843E-01,4C000000*,-703.0,973.491,90,29.2,44.9,0.406,734.5,2.1,1.050*
2018-07-01 01:33:00,-3.460E-01,4C000000*,-703.0,972.682,89,29.1,45.0,0.407,734.5,2.1,1.050*
2018-07-01 01:34:00,-2.451E-01,4C000000*,-702.6,971.873,90,29.1,45.0,0.406,734.5,2.1,1.050*
2018-07-01 01:35:00,-1.952E-01,4C000000*,-703.4,972.682,89,29.2,45.0,0.407,734.8,2.1,1.050*
2018-07-01 01:36:00,-2.964E-01,4C000000*,-702.6,974.299,91,29.2,45.0,0.406,734.5,2.1,1.050*
2018-07-01 01:37:00,-2.640E-01,4C000000*,-702.3,973.086,90,29.1,44.8,0.407,734.8,2.1,1.050*
2018-07-01 01:38:00,-2.573E-01,4C000000*,-702.6,974.703,90,29.2,45.2,0.407,734.8,2.1,1.050*
2018-07-01 01:39:00,-3.221E-01,4C000000*,-703.0,975.512,90,29.1,44.9,0.407,734.5,2.1,1.050*
2018-07-01 01:40:00,-1.806E-01,4C000000*,-702.6,974.703,91,29.2,45.1,0.407,734.8,2.1,1.050*
2018-07-01 01:41:00,-3.061E-01,4C000000*,-702.6,973.895,90,29.1,44.9,0.406,734.8,2.1,1.050*
2018-07-01 01:42:00,-3.311E-01,4C000000*,-703.0,973.086,89,29.1,45.0,0.406,734.5,2.1,1.050*
2018-07-01 01:43:00,-3.103E-01,4C000000*,-703.0,973.086,91,29.2,45.1,0.406,734.5,2.1,1.050*
2018-07-01 01:44:00,-2.522E-01,4C000000*,-702.6,974.299,89,29.2,44.8,0.407,734.8,2.1,1.050*
2018-07-01 01:45:00,-2.925E-01,4C000000*,-702.6,975.108,90,29.2,45.2,0.407,734.8,2.1,1.050*
2018-07-01 01:46:00,-2.358E-01,4C000000*,-702.6,974.299,90,29.1,44.8,0.407,734.8,2.1,1.050*
2018-07-01 01:47:00,-2.478E-01,4C000000*,-702.6,974.703,90,29.1,45.0,0.407,734.8,2.1,1.050*
2018-07-01 01:48:00,-2.599E-01,4C000000*,-703.4,975.512,90,29.2,44.9,0.407,734.8,2.1,1.050*
2018-07-01 01:49:00,-3.808E-01,4C000000*,-702.6,973.086,89,29.2,45.0,0.407,734.8,2.1,1.050*
2018-07-01 01:50:00,-2.745E-01,4C000000*,-702.6,973.895,90,29.2,45.1,0.406,734.8,2.1,1.050*
2018-07-01 01:51:00,-2.491E-01,4C000000*,-702.6,972.682,91,29.2,44.9,0.407,734.8,2.1,1.050*
2018-07-01 01:52:00,-2.825E-01,4C000000*,-702.3,974.703,91,29.2,45.2,0.407,734.8,2.1,1.050*
2018-07-01 01:53:00,-2.810E-01,4C000000*,-702.3,973.086,90,29.2,44.8,0.407,734.8,2.1,1.050*
2018-07-01 01:54:00,-2.136E-01,4C000000*,-702.6,973.086,90,29.1,45.1,0.406,734.5,2.1,1.050*
2018-07-01 01:55:00,-2.683E-01,4C000000*,-702.3,973.491,90,29.1,44.9,0.406,734.5,2.1,1.050*
2018-07-01 01:56:00,-2.867E-01,4C000000*,-702.6,973.086,89,29.2,45.0,0.407,734.8,2.1,1.050*
2018-07-01 01:57:00,-2.883E-01,4C000000*,-702.6,973.895,89,29.2,45.1,0.407,734.8,2.1,1.050*
2018-07-01 01:58:00,-2.289E-01,4C000000*,-702.6,973.086,88,29.2,44.9,0.407,734.8,2.1,1.050*
2018-07-01 01:59:00,-3.081E-01,4C000000*,-702.6,972.278,90,29.2,45.1,0.407,734.8,2.1,1.050*
2018-07-01 02:00:00,-2.944E-01,4C000000*,-702.6,975.512,89,29.3,44.8,0.407,734.8,2.1,1.050*
2018-07-01 02:01:00,-3.119E-01,4C000000*,-702.3,973.086,89,29.2,45.1,0.406,734.8,2.1,1.050*
2018-07-01 02:02:00,-2.358E-01,4C000000*,-702.6,972.278,90,29.2,44.9,0.407,734.8,2.1,1.050*
2018-07-01 02:03:00,-2.691E-01,4C000000*,-702.6,973.491,88,29.3,45.1,0.407,734.8,2.1,1.050*
2018-07-01 02:04:00,-2.621E-01,4C000000*,-702.6,973.491,90,29.1,45.0,0.407,734.8,2.1,1.050*
2018-07-01 02:05:00,-2.364E-01,4C000000*,-702.6,973.491,90,29.2,44.9,0.407,735.1,2.1,1.050*
2018-07-01 02:06:00,-3.381E-01,4C000000*,-702.6,973.895,90,29.3,45.1,0.407,734.8,2.1,1.050*
2018-07-01 02:07:00,-2.839E-01,4C000000*,-702.6,973.086,91,29.2,44.9,0.407,735.1,2.1,1.050*
2018-07-01 02:08:00,-3.413E-01,4C000000*,-702.6,972.682,90,29.2,45.2,0.407,734.8,2.1,1.050*
2018-07-01 02:09:00,-2.644E-01,4C000000*,-702.6,973.086,89,29.2,44.8,0.407,735.1,2.1,1.050*
2018-07-01 02:10:00,-2.546E-01,4C000000*,-702.6,973.491,89,29.2,45.1,0.407,734.8,2.1,1.050*
2018-07-01 02:11:00,-2.696E-01,4C000000*,-702.3,973.086,89,29.3,44.9,0.407,734.8,2.1,1.050*
2018-07-01 02:12:00,-3.345E-01,4C000000*,-702.6,972.682,90,29.2,45.0,0.407,734.8,2.1,1.050*
2018-07-01 02:13:00,-2.748E-01,4C000000*,-702.6,971.873,91,29.2,45.1,0.406,734.5,2.1,1.050*
2018-07-01 02:14:00,-2.352E-01,4C000000*,-702.6,971.873,90,29.3,44.8,0.407,734.5,2.1,1.050*
2018-07-01 02:15:00,-2.873E-01,4C000000*,-702.3,971.065,90,29.3,45.2,0.407,734.5,2.1,1.050*
2018-07-01 02:16:00,-3.461E-01,4C000000*,-703.0,974.299,89,29.3,44.8,0.407,734.8,2.1,1.050*
2018-07-01 02:17:00,-3.783E-01,4C000000*,-702.6,974.299,90,29.3,45.1,0.406,734.8,2.1,1.050*
2018-07-01 02:18:00,-3.248E-01,4C000000*,-702.6,973.491,91,29.2,45.0,0.406,734.5,2.1,1.050*
2018-07-01 02:19:00,-2.741E-01,4C000000*,-702.6,972.682,91,29.4,45.0,0.407,734.8,2.1,1.050*
2018-07-01 02:20:00,-2.902E-01,4C000000*,-703.0,973.895,89,29.3,45.1,0.407,734.8,2.1,1.050*
2018-07-01 02:21:00,-2.818E-01,4C000000*,-702.3,974.299,91,29.2,44.8,0.407,734.8,2.1,1.050*
2018-07-01 02:22:00,-2.378E-01,4C000000*,-702.6,973.491,89,29.3,45.1,0.407,734.8,2.1,1.050*
2018-07-01 02:23:00,-2.127E-01,4C000000*,-702.6,972.682,90,29.2,44.9,0.407,734.8,2.1,1.050*
2018-07-01 02:24:00,-3.032E-01,4C000000*,-703.0,972.682,89,29.4,45.1,0.407,735.1,2.1,1.050*
2018-07-01 02:25:00,-3.404E-01,4C000000*,-702.6,974.703,88,29.3,44.9,0.407,735.1,2.1,1.050*
2018-07-01 02:26:00,-3.106E-01,4C000000*,-703.0,972.682,89,29.2,45.0,0.407,735.1,2.1,1.050*
2018-07-01 02:27:00,-3.397E-01,4C000000*,-702.3,973.491,91,29.3,45.1,0.407,735.1,2.1,1.050*
2018-07-01 02:28:00,-2.056E-01,4C000000*,-702.3,972.682,90,29.3,44.9,0.407,735.4,2.1,1.050*
2018-07-01 02:29:00,-2.148E-01,4C000000*,-702.3,971.873,89,29.3,45.1,0.407,735.4,2.1,1.050*
2018-07-01 02:30:00,-3.093E-01,4C000000*,-703.0,973.086,90,29.3,44.9,0.407,735.7,2.1,1.050*
2018-07-01 02:31:00,-2.876E-01,4C000000*,-702.6,973.086,90,29.3,45.2,0.407,735.4,2.1,1.050*
2018-07-01 02:32:00,-2.058E-01,4C000000*,-703.0,974.703,89,29.3,44.9,0.407,735.4,2.1,1.050*
2018-07-01 02:33:00,-3.437E-01,4C000000*,-702.3,973.895,89,29.3,45.0,0.407,735.7,2.1,1.050*
2018-07-01 02:34:00,-3.028E-01,4C000000*,-703.0,972.682,91,29.3,45.0,0.407,735.4,2.1,1.050*
2018-07-01 02:35:00,-2.494E-01,4C000000*,-702.6,972.682,91,29.3,45.0,0.407,735.4,2.1,1.050*
2018-07-01 02:36:00,-3.881E-01,4C000000*,-702.6,973.895,91,29.4,45.1,0.407,735.1,2.1,1.050*
2018-07-01 02:37:00,-2.432E-01,4C000000*,-702.6,973.895,90,29.2,44.9,0.407,735.1,2.1,1.050*
2018-07-01 02:38:00,-2.963E-01,4C000000*,-702.3,973.491,90,29.3,45.2,0.407,734.8,2.1,1.050*
2018-07-01 02:39:00,-3.414E-01,4C000000*,-702.3,974.299,89,29.4,44.8,0.407,734.8,2.1,1.050*
2018-07-01 02:40:00,-2.679E-01,4C000000*,-703.0,973.086,90,29.4,45.1,0.407,734.8,2.1,1.050*
2018-07-01 02:41:00,-2.273E-01,4C000000*,-702.6,973.086,89,29.3,45.0,0.406,734.8,2.1,1.050*
2018-07-01 02:42:00,-2.551E-01,4C000000*,-703.0,972.278,87,29.3,45.0,0.407,734.8,2.1,1.050*
2018-07-01 02:43:00,-2.347E-01,4C000000*,-702.6,973.491,90,29.3,45.1,0.407,734.8,2.1,1.050*
2018-07-01 02:44:00,-2.467E-01,4C000000*,-702.6,973.491,88,29.3,44.8,0.407,735.1,2.1,1.050*
2018-07-01 02:45:00,-3.207E-01,4C000000*,-702.6,974.703,90,29.3,45.2,0.407,735.1,2.1,1.050*
2018-07-01 02:46:00,-2.870E-01,4C000000*,-702.6,974.703,91,29.3,44.9,0.407,735.4,2.1,1.050*
2018-07-01 02:47:00,-2.611E-01,4C000000*,-702.6,974.703,88,29.3,45.0,0.407,735.4,2.1,1.050*
2018-07-01 02:48:00,-2.997E-01,4C000000*,-702.6,973.895,90,29.3,44.9,0.407,735.1,2.1,1.050*
2018-07-01 02:49:00,-3.491E-01,4C000000*,-703.0,974.703,91,29.3,45.2,0.407,735.4,2.1,1.050*
2018-07-01 02:50:00,-3.640E-01,4C000000*,-703.0,974.703,91,29.3,44.9,0.407,735.4,2.1,1.050*
2018-07-01 02:51:00,-2.289E-01,4C000000*,-702.6,972.278,90,29.4,45.1,0.407,735.1,2.1,1.050*
2018-07-01 02:52:00,-3.030E-01,4C000000*,-702.6,974.703,91,29.3,45.0,0.407,735.4,2.1,1.050*
2018-07-01 02:53:00,-3.003E-01,4C000000*,-703.0,973.086,90,29.3,45.0,0.407,735.4,2.1,1.050*
2018-07-01 02:54:00,-3.423E-01,4C000000*,-702.6,972.682,90,29.3,45.1,0.407,735.1,2.1,1.050*
2018-07-01 02:55:00,-2.480E-01,4C000000*,-702.6,972.682,90,29.3,44.9,0.407,735.4,2.1,1.050*
2018-07-01 02:56:00,-3.496E-01,4C000000*,-703.0,973.491,90,29.4,45.2,0.407,735.1,2.1,1.050*
2018-07-01 02:57:00,-3.460E-01,4C000000*,-703.0,973.895,91,29.3,44.8,0.407,735.4,2.1,1.050*
2018-07-01 02:58:00,-3.167E-01,4C000000*,-702.6,973.491,89,29.3,45.1,0.407,735.4,2.1,1.050*
2018-07-01 02:59:00,-3.099E-01,4C000000*,-702.6,973.491,91,29.4,45.0,0.407,735.4,2.1,1.050*
2018-07-01 03:00:00,-3.243E-01,4C000000*,-702.3,973.895,90,29.4,45.0,0.408,735.7,2.1,1.050*
2018-07-01 03:01:00,-2.555E-01,4C000000*,-702.6,974.703,90,29.4,45.1,0.407,735.7,2.1,1.050*
2018-07-01 03:02:00,-3.018E-01,4C000000*,-702.6,973.895,90,29.4,44.9,0.407,736.0,2.1,1.050*
2018-07-01 03:03:00,-2.685E-01,4C000000*,-702.6,972.682,88,29.3,45.2,0.407,735.7,2.1,1.050*
2018-07-01 03:04:00,-3.394E-01,4C000000*,-703.0,972.682,89,29.4,44.8,0.408,736.0,2.1,1.050*
2018-07-01 03:05:00,-3.619E-01,4C000000*,-702.6,973.086,89,29.3,45.1,0.408,736.0,2.1,1.050*
2018-07-01 03:06:00,-3.233E-01,4C000000*,-703.0,974.703,90,29.4,44.9,0.407,735.7,2.1,1.050*
2018-07-01 03:07:00,-2.706E-01,4C000000*,-702.6,973.491,90,29.3,45.1,0.407,735.7,2.1,1.050*
2018-07-01 03:08:00,-2.908E-01,4C000000*,-702.6,973.895,90,29.4,45.1,0.407,735.4,2.1,1.050*
2018-07-01 03:09:00,-3.007E-01,4C000000*,-702.6,973.491,90,29.4,44.9,0.407,736.0,2.1,1.050*
2018-07-01 03:10:00,-2.166E-01,4C000000*,-702.6,973.491,90,29.3,45.1,0.407,735.7,2.1,1.050*
2018-07-01 03:11:00,-3.635E-01,4C000000*,-703.0,973.086,90,29.4,44.8,0.408,736.0,2.1,1.050*
2018-07-01 03:12:00,-2.662E-01,4C000000*,-702.6,972.682,90,29.4,45.1,0.407,736.0,2.1,1.050*
2018-07-01 03:13:00,-2.923E-01,4C000000*,-702.6,972.682,89,29.3,44.8,0.407,735.7,2.1,1.050*
2018-07-01 03:14:00,-3.303E-01,4C000000*,-702.6,974.299,91,29.3,45.1,0.408,735.7,2.1,1.050*
2018-07-01 03:15:00,-3.065E-01,4C000000*,-702.3,974.703,90,29.4,45.1,0.408,736.0,2.1,1.050*
2018-07-01 03:16:00,-2.709E-01,4C000000*,-703.0,972.682,90,29.3,45.0,0.407,736.3,2.1,1.050*
2018-07-01 03:17:00,-3.339E-01,4C000000*,-702.6,972.682,90,29.3,45.1,0.408,736.0,2.1,1.050*
2018-07-01 03:18:00,-2.858E-01,4C000000*,-702.6,972.682,91,29.3,44.9,0.407,736.3,2.1,1.050*
2018-07-01 03:19:00,-3.248E-01,4C000000*,-702.6,975.108,90,29.3,45.2,0.407,736.0,2.1,1.050*
2018-07-01 03:20:00,-2.397E-01,4C000000*,-702.6,973.491,88,29.3,44.8,0.408,736.0,2.1,1.050*
2018-07-01 03:21:00,-2.547E-01,4C000000*,-703.0,972.682,89,29.4,45.0,0.408,736.3,2.1,1.050*
2018-07-01 03:22:00,-2.561E-01,4C000000*,-702.6,974.299,89,29.3,45.0,0.407,736.3,2.1,1.050*
2018-07-01 03:23:00,-3.655E-01,4C000000*,-703.0,973.895,90,29.3,45.0,0.408,736.3,2.1,1.050*
2018-07-01 03:24:00,-3.223E-01,4C000000*,-702.6,971.873,89,29.3,45.0,0.407,736.0,2.1,1.050*
2018-07-01 03:25:00,-3.616E-01,4C000000*,-702.6,973.491,89,29.3,44.8,0.408,736.3,2.1,1.050*
2018-07-01 03:26:00,-2.642E-01,4C000000*,-702.6,971.873,90,29.4,45.2,0.408,736.3,2.1,1.050*
2018-07-01 03:27:00,-2.580E-01,4C000000*,-702.6,974.299,89,29.3,44.9,0.407,736.0,2.1,1.050*
2018-07-01 03:28:00,-2.672E-01,4C000000*,-703.0,972.682,92,29.3,45.1,0.408,736.3,2.1,1.050*
2018-07-01 03:29:00,-3.668E-01,4C000000*,-702.6,973.491,91,29.3,44.9,0.407,736.3,2.1,1.050*
2018-07-01 03:30:00,-3.952E-01,4C000000*,-702.6,973.491,90,29.3,45.0,0.407,736.6,2.1,1.050*
2018-07-01 03:31:00,-3.540E-01,4C000000*,-702.6,972.682,89,29.4,45.2,0.408,736.3,2.1,1.050*
2018-07-01 03:32:00,-3.579E-01,4C000000*,-702.6,972.278,90,29.3,44.9,0.408,736.6,2.1,1.050*
2018-07-01 03:33:00,-2.987E-01,4C000000*,-702.3,971.873,90,29.3,45.2,0.407,736.3,2.1,1.050*
2018-07-01 03:34:00,-2.849E-01,4C000000*,-703.0,972.682,90,29.3,44.8,0.408,736.3,2.1,1.050*
2018-07-01 03:35:00,-3.065E-01,4C000000*,-702.6,974.299,89,29.4,45.0,0.407,736.6,2.1,1.050*
2018-07-01 03:36:00,-3.825E-01,4C000000*,-703.0,973.895,89,29.4,44.9,0.407,736.3,2.1,1.050*
2018-07-01 03:37:00,-2.651E-01,4C000000*,-702.6,973.491,88,29.4,45.0,0.407,736.6,2.1,1.050*
2018-07-01 03:38:00,-2.771E-01,4C000000*,-702.6,973.895,90,29.4,45.1,0.408,736.3,2.1,1.050*
2018-07-01 03:39:00,-2.784E-01,4C000000*,-702.6,972.278,89,29.4,44.9,0.407,736.3,2.1,1.050*
2018-07-01 03:40:00,-2.588E-01,4C000000*,-702.6,974.703,90,29.3,45.1,0.407,736.3,2.1,1.050*
2018-07-01 03:41:00,-3.047E-01,4C000000*,-702.6,972.278,91,29.3,44.8,0.408,736.3,2.1,1.050*
2018-07-01 03:42:00,-2.956E-01,4C000000*,-703.0,974.703,91,29.4,45.2,0.408,736.3,2.1,1.050*
2018-07-01 03:43:00,-2.228E-01,4C000000*,-702.6,973.895,89,29.3,44.9,0.408,736.3,2.1,1.050*
2018-07-01 03:44:00,-2.763E-01,4C000000*,-702.6,973.491,90,29.3,45.1,0.408,736.6,2.1,1.050*
2018-07-01 03:45:00,-2.486E-01,4C000000*,-702.6,972.682,89,29.3,45.0,0.408,736.3,2.1,1.050*
2018-07-01 03:46:00,-2.798E-01,4C000000*,-703.0,974.703,90,29.4,44.9,0.408,736.3,2.1,1.050*
2018-07-01 03:47:00,-3.229E-01,4C000000*,-702.6,973.491,89,29.3,45.1,0.408,736.3,2.1,1.050*
2018-07-01 03:48:00,-3.014E-01,4C000000*,-702.6,975.108,90,29.4,44.9,0.408,736.6,2.1,1.050*
2018-07-01 03:49:00,-2.813E-01,4C000000*,-703.0,971.873,90,29.4,45.2,0.408,736.6,2.1,1.050*
2018-07-01 03:50:00,-2.687E-01,4C000000*,-702.6,972.682,90,29.3,44.9,0.408,736.3,2.1,1.050*
2018-07-01 03:51:00,-3.553E-01,4C000000*,-702.6,975.512,88,29.4,45.1,0.408,736.3,2.1,1.050*
2018-07-01 03:52:00,-2.389E-01,4C000000*,-702.3,972.278,90,29.3,45.0,0.408,736.6,2.1,1.050*
2018-07-01 03:53:00,-2.869E-01,4C000000*,-702.6,972.682,89,29.4,45.0,0.408,736.3,2.1,1.050*
2018-07-01 03:54:00,-3.074E-01,4C000000*,-702.6,973.491,90,29.4,45.1,0.407,736.3,2.1,1.050*
2018-07-01 03:55:00,-3.449E-01,4C000000*,-702.6,971.873,90,29.4,44.8,0.407,736.3,2.1,1.050*
2018-07-01 03:56:00,-3.121E-01,4C000000*,-702.6,972.682,91,29.4,45.2,0.408,736.3,2.1,1.050*
2018-07-01 03:57:00,-3.126E-01,4C000000*,-702.6,972.682,90,29.4,44.9,0.408,736.6,2.1,1.050*
2018-07-01 03:58:00,-3.054E-01,4C000000*,-702.6,974.299,87,29.3,45.1,0.408,736.6,2.1,1.050*
2018-07-01 03:59:00,-3.290E-01,4C000000*,-702.6,973.491,90,29.3,45.0,0.408,736.6,2.1,1.050*
2018-07-01 04:00:00,-2.772E-01,4C000000*,-702.6,972.278,89,29.3,45.0,0.408,736.6,2.1,1.050*
2018-07-01 04:01:00,-3.434E-01,4C000000*,-702.6,973.491,90,29.4,45.1,0.408,736.6,2.1,1.050*
2018-07-01 04:02:00,-3.087E-01,4C000000*,-702.6,974.703,89,29.4,44.9,0.408,736.6,2.1,1.050*
2018-07-01 04:03:00,-3.316E-01,4C000000*,-702.6,973.895,90,29.3,45.2,0.408,736.6,2.1,1.050*
2018-07-01 04:04:00,-2.974E-01,4C000000*,-702.6,971.469,89,29.3,44.9,0.408,736.6,2.1,1.050*
2018-07-01 04:05:00,-2.539E-01,4C000000*,-702.6,973.086,89,29.3,45.1,0.408,736.6,2.1,1.050*
2018-07-01 04:06:00,-2.385E-01,4C000000*,-702.6,971.469,89,29.3,44.9,0.407,736.3,2.1,1.050*
2018-07-01 04:07:00,-3.278E-01,4C000000*,-703.0,973.895,89,29.3,45.0,0.408,736.6,2.1,1.050*
2018-07-01 04:08:00,-2.970E-01,4C000000*,-703.0,972.682,89,29.3,45.1,0.408,736.6,2.1,1.050*
2018-07-01 04:09:00,-2.248E-01,4C000000*,-703.0,973.491,90,29.3,44.9,0.408,736.6,2.1,1.050*
2018-07-01 04:10:00,-3.275E-01,4C000000*,-702.3,972.278,90,29.3,45.0,0.408,736.6,2.1,1.050*
2018-07-01 04:11:00,-3.058E-01,4C000000*,-702.6,973.491,91,29.3,44.8,0.408,736.6,2.1,1.050*
2018-07-01 04:12:00,-3.248E-01,4C000000*,-702.6,972.278,89,29.2,45.1,0.408,736.6,2.1,1.050*
2018-07-01 04:13:00,-3.892E-01,4C000000*,-703.0,972.278,90,29.3,44.9,0.408,736.6,2.1,1.050*
2018-07-01 04:14:00,-3.563E-01,4C000000*,-702.6,971.065,90,29.3,45.1,0.408,736.6,2.1,1.050*